This is the latest recevied weather packets stored in our database for station/object N3WMC. If no packets are shown the sender has not sent any weather packets the latest 10 day(s).
| Time | Temp. | Humidity | Pressure | Rain* | Wind** | Luminosity | Snow |
|---|---|---|---|---|---|---|---|
| 1788022518 | 25.56° C | 45% | 1025 hPa | 0 mm | - | 600 W/m² | - |
| 1788022214 | 25° C | 47% | 1025 hPa | 0 mm | - | 598 W/m² | - |
| 1788021912 | 25.56° C | 45% | 1025 hPa | 0 mm | - | 603 W/m² | - |
| 1788021607 | 25.56° C | 45% | 1025.3 hPa | 0 mm | - | 605 W/m² | - |
| 1788021305 | 25° C | 47% | 1025.2 hPa | 0 mm | - | 602 W/m² | - |
| 1788021000 | 25° C | 44% | 1025.3 hPa | 0 mm | - | 603 W/m² | - |
| 1788020695 | 25.56° C | 44% | 1025.4 hPa | 0 mm | - | 601 W/m² | - |
| 1788020390 | 25° C | 43% | 1025.4 hPa | 0 mm | - | 600 W/m² | - |
| 1788020087 | 25.56° C | 43% | 1025.4 hPa | 0 mm | - | 593 W/m² | - |
| 1788019786 | 25.56° C | 43% | 1025.4 hPa | 0 mm | - | 593 W/m² | - |
| 1788019480 | 25° C | 45% | 1025.7 hPa | 0 mm | - | 591 W/m² | - |
| 1788019178 | 25° C | 45% | 1025.9 hPa | 0 mm | - | 589 W/m² | - |
| 1788018867 | 24.44° C | 43% | 1025.6 hPa | 0 mm | - | 583 W/m² | - |
| 1788018563 | 24.44° C | 44% | 1025.8 hPa | 0 mm | - | 580 W/m² | - |
| 1788018261 | 24.44° C | 45% | 1025.8 hPa | 0 mm | - | 573 W/m² | - |
| 1788017958 | 24.44° C | 47% | 1025.9 hPa | 0 mm | - | 567 W/m² | - |
| 1788017653 | 23.89° C | 50% | 1025.9 hPa | 0 mm | - | 563 W/m² | - |
| 1788017350 | 23.89° C | 49% | 1025.9 hPa | 0 mm | - | 560 W/m² | - |
| 1788017046 | 24.44° C | 47% | 1025.9 hPa | 0 mm | - | 548 W/m² | - |
| 1788016745 | 23.89° C | 50% | 1026 hPa | 0 mm | - | 542 W/m² | - |
| 1788016444 | 23.33° C | 51% | 1025.9 hPa | 0 mm | - | 538 W/m² | - |
| 1788016143 | 23.33° C | 51% | 1026 hPa | 0 mm | - | 533 W/m² | - |
| 1788015842 | 23.33° C | 52% | 1026 hPa | 0 mm | - | 525 W/m² | - |
| 1788015537 | 22.78° C | 53% | 1026 hPa | 0 mm | - | 519 W/m² | - |
| 1788015232 | 22.78° C | 54% | 1025.9 hPa | 0 mm | - | 512 W/m² | - |
* Rain latest hour (hover to see other rain measurements)
** Current wind speed in m/s (hover to see current wind gust speed)